Date,TemperatureHighF,TemperatureAvgF,TemperatureLowF,DewpointHighF,DewpointAvgF,DewpointLowF,HumidityHigh,HumidityAvg,HumidityLow,PressureMaxIn,PressureMinIn,WindSpeedMaxMPH,WindSpeedAvgMPH,GustSpeedMaxMPH,PrecipitationSumIn
2013-1-1,34,33,33,33,32,32,95,95,94,0.00,40.00,4,1,6,0.00
2013-1-2,33,26,17,16,13,9,85,60,36,0.00,40.00,5,2,8,0.00
2013-1-3,36,32,26,24,22,20,92,69,54,0.00,40.00,6,2,11,0.00
2013-1-4,37,28,21,27,22,19,94,79,52,0.00,40.00,11,2,17,0.00
2013-1-5,44,30,18,33,23,16,93,78,46,0.00,40.00,6,1,12,0.00
2013-1-6,40,35,25,34,27,20,88,73,62,0.00,40.00,16,4,22,0.00
2013-1-7,43,30,18,27,22,17,94,74,43,0.00,40.00,4,1,9,0.00
2013-1-8,53,33,22,34,25,20,94,78,38,0.00,40.00,3,1,14,0.00
2013-1-9,57,45,35,48,38,31,94,80,53,0.00,40.00,6,1,12,0.00
2013-1-10,54,43,35,51,37,28,95,80,48,0.00,40.00,6,2,11,0.00
2013-1-11,63,57,44,49,46,42,93,69,55,0.00,40.00,4,2,12,0.00
2013-1-12,68,63,44,63,59,42,93,87,74,0.00,40.00,6,2,16,0.00
2013-1-13,69,42,27,61,39,20,93,88,74,0.00,40.00,12,6,24,0.00
2013-1-14,29,26,23,20,18,16,77,72,65,0.00,40.00,9,5,14,0.00
2013-1-15,33,32,31,23,21,19,67,62,58,0.00,40.00,7,4,13,0.00
2013-1-16,36,33,30,27,24,20,87,70,53,0.00,40.00,6,2,10,0.00
2013-1-17,48,36,30,30,27,19,92,72,47,0.00,40.00,14,4,24,0.00
2013-1-18,44,32,21,25,21,19,93,68,38,0.00,40.00,4,2,12,0.00
2013-1-19,56,46,36,29,26,22,64,45,32,0.00,40.00,10,6,27,0.00
2013-1-20,45,38,33,35,19,10,78,48,32,0.00,40.00,9,6,16,0.00
2013-1-21,27,24,17,17,9,1,71,53,37,0.00,40.00,18,9,27,0.00
2013-1-22,22,18,13,3,0,-3,52,44,38,0.00,40.00,8,4,17,0.00
2013-1-23,38,24,14,19,11,3,81,59,38,0.00,40.00,6,1,12,0.00
2013-1-24,32,24,20,20,13,9,72,61,52,0.00,40.00,11,7,26,0.00
2013-6-18,65,65,65,63,63,63,94,94,94,0.00,40.00,2,1,4,0.00
2013-6-20,85,83,77,64,63,61,58,52,50,0.00,40.00,2,2,7,0.00
2013-6-27,90,84,75,74,72,68,95,69,47,0.00,40.00,7,3,18,0.00
2013-6-28,87,87,87,59,59,59,38,38,38,0.00,40.00,9,9,19,0.00
2013-6-29,83,79,73,62,62,62,68,57,48,0.00,40.00,6,5,19,0.00
2013-7-1,69,69,69,66,66,66,91,91,91,0.00,40.00,0,0,2,0.00
2013-7-2,71,71,71,67,67,67,88,88,88,0.00,40.00,2,2,6,0.00
2013-7-7,81,74,69,68,68,67,93,81,63,0.00,40.00,1,1,4,0.00
2013-7-8,71,71,71,68,68,68,93,93,93,0.00,40.00,1,1,2,0.00
2013-7-12,83,83,83,55,55,55,38,38,38,0.00,40.00,6,6,16,0.00
2013-7-15,88,85,75,73,70,69,93,62,54,0.00,40.00,1,0,6,0.00
2013-7-16,75,75,75,73,73,73,93,93,93,0.00,40.00,1,1,2,0.00
2013-8-5,85,85,85,58,58,58,40,40,40,0.00,40.00,1,1,4,0.00
2013-8-6,78,78,78,75,75,75,92,92,92,0.00,40.00,1,1,6,0.00
2013-8-7,85,85,85,71,71,71,63,63,63,0.00,40.00,7,7,11,0.00